Tracking 20040 objects as of 18-Nov-2019
Live streaming from Space Station
objects crossing your sky now

COSMOS 1275 DEB

Track COSMOS 1275 DEB now!
10-day predictions


NORAD ID: 42145
Int'l Code: 1981-053RH
Perigee: 743.6 km
Apogee: 787.3 km
Inclination: 83.4 °
Period: 100.0 minutes
Semi major axis: 7136 km
RCS: Unknown
Launch date: June 4, 1981
Source: Commonwealth of Independent States (former USSR) (CIS)
Launch site: PLESETSK MISSILE AND SPACE COMPLEX (PKMTR)

Note: This is SATELLITE DEBRIS
aabbcc
Your satellite tracking list
Your tracking list is empty




NASA's NSSDC Master Catalog

Two Line Element Set (TLE):
1 42145U 81053RH  19321.48223501  .00001506  00000-0  46937-3 0  9998
2 42145  83.3727 225.0407 0030608 155.4480 204.8179 14.40062994314167
Source of the keplerian elements: AFSPC